User: anonymous   Login
Location: Griffin Ranch
(33.6186°N, 110.6622°W)
Time: 16:05:55
(UTC-07:00)
Language:

Cosmos 1812 - Orbit

View from above orbital plane
View from above orbital plane
View from above satellite
View from above satellite

Ground track
Ground track

The orbit data is extracted from the following two-line orbital elements,

1 17295U 87003A   14329.79952654  .00004098  00000-0  24812-3 0  4770
2 17295 082.5139 342.2520 0006148 109.8881 307.4149 15.10347382517674
Epoch (UTC): 25 November 2014 19:11:19
Eccentricity: 0.0006148
inclination: 82.5139°
perigee height: 531 km
apogee height: 539 km
right ascension of ascending node: 342.2520°
argument of perigee: 109.8881°
revolutions per day: 15.10347382
mean anomaly at epoch: 307.4149°
orbit number at epoch: 51767

The dashed part of the orbit path shows where the satellite is in the earth's shadow,  

DLR